Regional Weather Roundup
Issued by NWS

Home | Current Version | Previous Version | Graphics & Text | Print | Product List | Glossary Off
Versions: 1 2 3 4 5 6 7 8 9 10 11 12 13 14 15 16 17 18 19 20 21 22 23 24 25 26 27 28 29 30 31 32 33 34 35 36 37 38 39 40 41 42 43 44 45 46 47 48 49 50

000
ASUS43 KTOP 180659
RWRKS

WEATHER ROUNDUP FOR KANSAS
NATIONAL WEATHER SERVICE GOODLAND KS
200 AM CDT FRI AUG 18 2017

NOTE:  "FAIR" INDICATES FEW OR NO CLOUDS BELOW 12,000 FEET WITH NO
SIGNIFICANT WEATHER AND/OR OBSTRUCTIONS TO VISIBILITY.

KSZ001>006-013>018-027>032-041>047-180800-
NORTHWEST KANSAS

CITY           SKY/WX    TMP DP  RH WIND       PRES   REMARKS
GOODLAND       CLEAR     64  60  87 S16       30.06F
HAYS           CLOUDY    64  61  90 S15       29.97F
HILL CITY      MOCLDY    67  58  72 SW9       29.98S
RUSSELL        RAIN      66  63  90 S18       29.95F
$$

KSZ061>065-074>080-084>089-180800-
SOUTHWEST KANSAS

CITY           SKY/WX    TMP DP  RH WIND       PRES   REMARKS
DODGE CITY     PTCLDY    66  58  75 SE5       30.06F
ELKHART          N/A     63  63 100 S9          N/A
GARDEN CITY    CLOUDY    66  60  81 E10       30.05F
LIBERAL        CLOUDY    67  64  90 SE7       30.04F
$$

KSZ066>073-081>083-090>101-180800-
SOUTHEAST KANSAS

CITY           SKY/WX    TMP DP  RH WIND       PRES   REMARKS
CHANUTE        PTCLDY    67  62  84 S6        29.99S
COFFEYVILLE    PTCLDY    66  65  96 CALM      29.99S
HUTCHINSON     MOCLDY    73  61  65 SW6       30.00F
MEDICINE LODGE   N/A     72  63  73 N7        29.98F
NEWTON         CLOUDY    69  61  75 S8        30.00F
PARSONS        CLEAR     64  62  93 CALM      30.00F
WICHITA INTL   CLOUDY    68  63  84 SW8       30.00S
WICHITA JABRA  CLOUDY    72  60  66 S8        29.99F
WINFIELD       PTCLDY    69  62  78 SE3       30.01F
$$

KSZ007>012-019>026-033>040-048>060-102>105-180800-
NORTHEAST KANSAS

CITY           SKY/WX    TMP DP  RH WIND       PRES   REMARKS
CONCORDIA      MOCLDY    73  60  63 SW14      29.95F
EMPORIA        PTCLDY    67  60  78 S8        29.98F
LAWRENCE       PTCLDY    62  62 100 CALM      29.96S
MANHATTAN      PTCLDY    65  63  93 CALM      29.96F
OLATHE IND     PTCLDY    68  61  78 SW8       29.98S
OLATHE EXE     CLEAR     66  62  87 SW3       29.97S
SALINA         MOCLDY    75  61  61 W12       30.00R
TOPEKA BILLARD PTCLDY    64  62  93 CALM      29.96S
TOPEKA FORBES  PTCLDY    66  61  84 S5        29.97S
$$




USA.gov is the U.S. government's official web portal to all federal, state and local government web resources and services.